EN

Hourly Weather Dziechno

Today, 24 October, Saturday

Time Temperature Precipitation Wind Pressure Humidity
00:00 +10°C° 0.7 mm 2 mps 741 mmHg 94%
01:00 +10°C° 0.7 mm 2 mps 741 mmHg 94%
02:00 +10°C° 0 mm 2 mps 741 mmHg 95%
03:00 +9°C° 0 mm 2 mps 741 mmHg 96%
04:00 +9°C° 0 mm 2 mps 741 mmHg 97%
05:00 +9°C° 0 mm 3 mps 742 mmHg 97%
06:00 +9°C° 0 mm 3 mps 742 mmHg 97%
07:00 +9°C° 0 mm 3 mps 742 mmHg 97%
08:00 +10°C° 0 mm 4 mps 742 mmHg 91%
09:00 +10°C° 0 mm 5 mps 742 mmHg 85%
10:00 +13°C° 0 mm 6 mps 742 mmHg 79%
11:00 +13°C° 0 mm 6 mps 742 mmHg 77%
12:00 +13°C° 0 mm 6 mps 742 mmHg 76%
13:00 +14°C° 0 mm 6 mps 743 mmHg 74%
14:00 +13°C° 0 mm 6 mps 743 mmHg 76%
15:00 +13°C° 0 mm 5 mps 743 mmHg 78%
16:00 +12°C° 0 mm 5 mps 743 mmHg 79%
17:00 +12°C° 0.1 mm 4 mps 743 mmHg 82%
18:00 +11°C° 0.1 mm 4 mps 743 mmHg 84%
19:00 +11°C° 0.1 mm 4 mps 744 mmHg 87%
20:00 +11°C° 0 mm 3 mps 744 mmHg 88%
21:00 +10°C° 0 mm 3 mps 744 mmHg 88%
22:00 +10°C° 0 mm 2 mps 744 mmHg 89%
23:00 +10°C° 0 mm 3 mps 744 mmHg 90%

Tomorrow, 25 October, Sunday

Time Temperature Precipitation Wind Pressure Humidity
00:00 +10°C° 0 mm 3 mps 744 mmHg 91%
01:00 +10°C° 0 mm 3 mps 744 mmHg 92%
02:00 +10°C° 0 mm 3 mps 744 mmHg 92%
03:00 +10°C° 0 mm 3 mps 744 mmHg 92%
04:00 +10°C° 0 mm 3 mps 744 mmHg 93%
05:00 +9°C° 0 mm 3 mps 744 mmHg 92%
06:00 +8°C° 0 mm 4 mps 744 mmHg 92%
07:00 +8°C° 0 mm 4 mps 744 mmHg 92%
08:00 +10°C° 0 mm 4 mps 744 mmHg 86%
09:00 +10°C° 0 mm 5 mps 744 mmHg 81%
10:00 +13°C° 0 mm 5 mps 744 mmHg 75%
11:00 +13°C° 0 mm 5 mps 744 mmHg 72%
12:00 +14°C° 0 mm 5 mps 744 mmHg 69%
13:00 +15°C° 0 mm 5 mps 744 mmHg 66%
14:00 +14°C° 0 mm 5 mps 743 mmHg 69%
15:00 +14°C° 0 mm 5 mps 743 mmHg 72%
16:00 +13°C° 0 mm 4 mps 742 mmHg 75%
17:00 +13°C° 0 mm 5 mps 742 mmHg 77%
18:00 +12°C° 0 mm 5 mps 742 mmHg 80%
19:00 +12°C° 0 mm 5 mps 742 mmHg 82%
20:00 +12°C° 0 mm 5 mps 742 mmHg 83%
21:00 +12°C° 0 mm 5 mps 742 mmHg 84%
22:00 +10°C° 0 mm 6 mps 742 mmHg 86%
23:00 +10°C° 0 mm 5 mps 742 mmHg 86%

Day after tomorrow, 26 October, Monday

Time Temperature Precipitation Wind Pressure Humidity
00:00 +10°C° 0 mm 5 mps 741 mmHg 85%
01:00 +10°C° 0 mm 5 mps 741 mmHg 85%
02:00 +9°C° 0 mm 5 mps 741 mmHg 86%
03:00 +9°C° 0 mm 5 mps 741 mmHg 88%
04:00 +10°C° 0 mm 4 mps 740 mmHg 89%
05:00 +8°C° 0 mm 4 mps 740 mmHg 90%
06:00 +8°C° 0 mm 4 mps 740 mmHg 92%
07:00 +8°C° 0 mm 4 mps 740 mmHg 94%
08:00 +10°C° 0 mm 4 mps 740 mmHg 90%
09:00 +10°C° 0 mm 4 mps 740 mmHg 86%
10:00 +11°C° 0 mm 4 mps 740 mmHg 82%
11:00 +12°C° 0 mm 4 mps 740 mmHg 80%
12:00 +13°C° 0 mm 4 mps 740 mmHg 78%
13:00 +13°C° 0 mm 4 mps 739 mmHg 76%
14:00 +13°C° 0 mm 4 mps 739 mmHg 78%
15:00 +13°C° 0 mm 4 mps 739 mmHg 80%
16:00 +12°C° 0 mm 4 mps 739 mmHg 82%
17:00 +12°C° 0 mm 3 mps 739 mmHg 84%
18:00 +12°C° 0 mm 3 mps 739 mmHg 85%
19:00 +12°C° 0 mm 3 mps 739 mmHg 86%
20:00 +12°C° 0.1 mm 3 mps 739 mmHg 86%
21:00 +12°C° 0.1 mm 3 mps 739 mmHg 86%
22:00 +12°C° 0.1 mm 3 mps 739 mmHg 86%
23:00 +11°C° 0.1 mm 3 mps 740 mmHg 89%

, 27 October, Tuesday

Time Temperature Precipitation Wind Pressure Humidity
00:00 +12°C° 0.1 mm 2 mps 740 mmHg 91%
01:00 +12°C° 0.1 mm 2 mps 740 mmHg 93%
02:00 +12°C° 0.1 mm 2 mps 740 mmHg 94%
03:00 +10°C° 0.1 mm 2 mps 740 mmHg 94%
04:00 +10°C° 0.1 mm 2 mps 740 mmHg 94%
05:00 +11°C° 0 mm 1 mps 740 mmHg 94%
06:00 +11°C° 0 mm 1 mps 741 mmHg 94%
07:00 +11°C° 0 mm 1 mps 741 mmHg 94%
08:00 +11°C° 0 mm 1 mps 741 mmHg 91%
09:00 +11°C° 0 mm 0 mps 741 mmHg 87%
10:00 +11°C° 0 mm 0 mps 742 mmHg 84%
11:00 +12°C° 0 mm 1 mps 742 mmHg 84%
12:00 +12°C° 0 mm 1 mps 742 mmHg 85%
13:00 +12°C° 0 mm 1 mps 742 mmHg 85%
14:00 +12°C° 0.9 mm 1 mps 741 mmHg 88%
15:00 +11°C° 0.9 mm 1 mps 741 mmHg 91%
16:00 +11°C° 0.9 mm 1 mps 741 mmHg 94%
17:00 +10°C° 1.4 mm 2 mps 741 mmHg 94%
18:00 +10°C° 1.4 mm 2 mps 741 mmHg 93%
19:00 +9°C° 1.4 mm 3 mps 741 mmHg 92%
20:00 +9°C° 0.3 mm 3 mps 742 mmHg 91%
21:00 +9°C° 0.3 mm 3 mps 742 mmHg 90%
22:00 +9°C° 0.3 mm 3 mps 742 mmHg 89%
23:00 +9°C° 0 mm 3 mps 742 mmHg 89%

27 October, Tuesday

Time Temperature Precipitation Wind Pressure Humidity
00:00 +12°C° 0.1 mm 2 mps 740 mmHg 91%
01:00 +12°C° 0.1 mm 2 mps 740 mmHg 93%
02:00 +12°C° 0.1 mm 2 mps 740 mmHg 94%
03:00 +10°C° 0.1 mm 2 mps 740 mmHg 94%
04:00 +10°C° 0.1 mm 2 mps 740 mmHg 94%
05:00 +11°C° 0 mm 1 mps 740 mmHg 94%
06:00 +11°C° 0 mm 1 mps 741 mmHg 94%
07:00 +11°C° 0 mm 1 mps 741 mmHg 94%
08:00 +11°C° 0 mm 1 mps 741 mmHg 91%
09:00 +11°C° 0 mm 0 mps 741 mmHg 87%
10:00 +11°C° 0 mm 0 mps 742 mmHg 84%
11:00 +12°C° 0 mm 1 mps 742 mmHg 84%
12:00 +12°C° 0 mm 1 mps 742 mmHg 85%
13:00 +12°C° 0 mm 1 mps 742 mmHg 85%
14:00 +12°C° 0.9 mm 1 mps 741 mmHg 88%
15:00 +11°C° 0.9 mm 1 mps 741 mmHg 91%
16:00 +11°C° 0.9 mm 1 mps 741 mmHg 94%
17:00 +10°C° 1.4 mm 2 mps 741 mmHg 94%
18:00 +10°C° 1.4 mm 2 mps 741 mmHg 93%
19:00 +9°C° 1.4 mm 3 mps 741 mmHg 92%
20:00 +9°C° 0.3 mm 3 mps 742 mmHg 91%
21:00 +9°C° 0.3 mm 3 mps 742 mmHg 90%
22:00 +9°C° 0.3 mm 3 mps 742 mmHg 89%
23:00 +9°C° 0 mm 3 mps 742 mmHg 89%

28 October, Wednesday

Time Temperature Precipitation Wind Pressure Humidity
00:00 +8°C° 0 mm 3 mps 742 mmHg 89%
01:00 +8°C° 0 mm 3 mps 742 mmHg 90%
02:00 +8°C° 0 mm 3 mps 743 mmHg 90%
03:00 +8°C° 0 mm 3 mps 743 mmHg 91%
04:00 +6°C° 0 mm 4 mps 743 mmHg 91%
05:00 +6°C° 0 mm 4 mps 743 mmHg 91%
06:00 +6°C° 0 mm 4 mps 743 mmHg 90%
07:00 +6°C° 0 mm 4 mps 743 mmHg 89%
08:00 +7°C° 0 mm 5 mps 743 mmHg 83%
09:00 +8°C° 0 mm 6 mps 743 mmHg 77%
10:00 +9°C° 0 mm 6 mps 743 mmHg 71%
11:00 +10°C° 0 mm 6 mps 743 mmHg 67%
12:00 +10°C° 0 mm 6 mps 743 mmHg 63%
13:00 +11°C° 0 mm 6 mps 743 mmHg 60%
14:00 +11°C° 0 mm 6 mps 743 mmHg 62%
15:00 +10°C° 0 mm 5 mps 743 mmHg 65%
16:00 +11°C° 0 mm 4 mps 743 mmHg 68%
17:00 +10°C° 0 mm 4 mps 743 mmHg 70%
18:00 +10°C° 0 mm 4 mps 743 mmHg 72%
19:00 +10°C° 0 mm 4 mps 743 mmHg 74%
20:00 +9°C° 0 mm 5 mps 743 mmHg 74%
21:00 +9°C° 0 mm 5 mps 743 mmHg 74%
22:00 +8°C° 0 mm 5 mps 743 mmHg 74%
23:00 +8°C° 0 mm 5 mps 743 mmHg 77%

29 October, Thursday

Time Temperature Precipitation Wind Pressure Humidity
00:00 +8°C° 0 mm 5 mps 742 mmHg 80%
01:00 +7°C° 0 mm 4 mps 742 mmHg 83%
02:00 +7°C° 0 mm 4 mps 742 mmHg 83%
03:00 +7°C° 0 mm 5 mps 742 mmHg 83%
04:00 +7°C° 0 mm 5 mps 742 mmHg 83%
05:00 +7°C° 0 mm 5 mps 742 mmHg 83%
06:00 +7°C° 0 mm 5 mps 742 mmHg 84%
07:00 +6°C° 0 mm 5 mps 742 mmHg 84%
08:00 +7°C° 0.1 mm 5 mps 742 mmHg 85%
09:00 +7°C° 0.1 mm 5 mps 742 mmHg 85%
10:00 +8°C° 0.1 mm 5 mps 742 mmHg 85%
11:00 +8°C° 0.5 mm 5 mps 742 mmHg 84%
12:00 +9°C° 0.5 mm 5 mps 742 mmHg 82%
13:00 +9°C° 0.5 mm 6 mps 743 mmHg 80%
14:00 +9°C° 0.1 mm 5 mps 743 mmHg 79%
15:00 +9°C° 0.1 mm 5 mps 743 mmHg 77%
16:00 +10°C° 0.1 mm 4 mps 744 mmHg 76%
17:00 +8°C° 0 mm 4 mps 744 mmHg 78%
18:00 +8°C° 0 mm 4 mps 744 mmHg 79%
19:00 +7°C° 0 mm 4 mps 745 mmHg 81%
20:00 +7°C° 0 mm 4 mps 745 mmHg 82%
21:00 +7°C° 0 mm 5 mps 745 mmHg 82%
22:00 +7°C° 0 mm 5 mps 745 mmHg 83%
23:00 +7°C° 0 mm 5 mps 745 mmHg 82%
Show more